Weather History for KPIR - March, 2013

Change the Weather History Date:

Saturday, March 9, 2013

  Actual Average Record
Temperature  
Mean Temperature 30 °F 32 °F  
Max Temperature 35 °F 42 °F 70 °F (1936)
Min Temperature 24 °F 21 °F -13 °F (1996)
Degree Days  
Heating Degree Days 35 33  
Month to date heating degree days 318 313  
Since 1 July heating degree days 5742 5811  
Cooling Degree Days 0 0  
Month to date cooling degree days 0 0  
Year to date cooling degree days 0 0  
Moisture  
Dew Point 25 °F    
Average Humidity 84    
Maximum Humidity 100    
Minimum Humidity 68    
Precipitation  
Precipitation T in 0.04 in 0.71 in (2010)
Month to date precipitation T 0.29  
Year to date precipitation 1.66 1.30  
Snow  
Snow 0.00 in 0.20 in 4.30 in (1970)
Month to date snowfall 0.2 2.1  
Since 1 July snowfall 31.9 23.9  
Snow Depth 0.00 in    
Sea Level Pressure  
Sea Level Pressure 29.91 in    
Wind  
Wind Speed 16 mph (North)    
Max Wind Speed 31 mph    
Max Gust Speed 41 mph    
Visibility 10 miles    
Events Snow    
T = Trace of Precipitation, MM = Missing Value Source: NWS Daily Summary

Daily Weather History Graph

Daily Weather History Graph

Search for Another Location

Airport or City:

Trip Planner

Search our weather history database for the weather conditions in past years. The results will help you decide how hot, cold, wet, or windy it might be!

Date:

Astronomy

Mar. 09, 2013 Rise Set
Actual Time 7:03 AM CST 6:40 PM CST
Civil Twilight 6:34 AM CST 7:08 PM CST
Nautical Twilight 6:01 AM CST 7:42 PM CST
Astronomical Twilight 5:27 AM CST 8:16 PM CST
Moon 5:32 AM CST (3/9) 4:41 PM CST (3/9)
Length of Visible Light 12h 34m
Length of Day
11h 36m
Waning Crescent, 5% of the Moon is Illuminated
Mar 9
Waning Crescent
Mar 11
New
Mar 19
First Quarter
Mar 27
Full
Apr 2
Last Quarter

Hourly Weather History & Observations

Time (CST) Temp. Windchill Dew Point Humidity Pressure Visibility Wind Dir Wind Speed Gust Speed Precip Events Conditions
12:53 AM 30.0 °F 22.4 °F 28.0 °F 92% 29.91 in 10.0 mi NE 8.1 mph - N/A   Overcast
1:24 AM 30.2 °F 23.4 °F 28.4 °F 93% 29.86 in 10.0 mi NE 6.9 mph - N/A   Overcast
1:53 AM 30.0 °F 23.2 °F 28.0 °F 92% 29.90 in 10.0 mi NNE 6.9 mph - N/A   Overcast
2:53 AM 30.0 °F 21.7 °F 28.0 °F 92% 29.86 in 10.0 mi NNE 9.2 mph - N/A   Overcast
3:53 AM 28.9 °F 21.1 °F 28.9 °F 100% 29.87 in 7.0 mi NNE 8.1 mph - N/A   Overcast
4:53 AM 28.9 °F 21.9 °F 28.0 °F 96% 29.86 in 6.0 mi NE 6.9 mph - N/A   Overcast
5:53 AM 28.9 °F 20.4 °F 28.0 °F 96% 29.86 in 10.0 mi North 9.2 mph - N/A   Overcast
6:53 AM 28.9 °F 19.2 °F 28.0 °F 96% 29.85 in 10.0 mi NNW 11.5 mph - N/A   Overcast
7:53 AM 28.0 °F 15.7 °F 27.0 °F 96% 29.83 in 10.0 mi North 17.3 mph 23.0 mph N/A   Overcast
8:53 AM 28.0 °F 16.1 °F 27.0 °F 96% 29.86 in 10.0 mi North 16.1 mph - N/A   Overcast
9:53 AM 28.0 °F 18.1 °F 26.1 °F 92% 29.87 in 10.0 mi North 11.5 mph - N/A   Overcast
10:53 AM 27.0 °F 15.6 °F 26.1 °F 96% 29.88 in 10.0 mi NNW 13.8 mph - N/A   Overcast
11:28 AM 26.6 °F 13.8 °F 24.8 °F 93% 29.82 in 10.0 mi NNW 17.3 mph - N/A   Overcast
11:53 AM 27.0 °F 13.2 °F 24.1 °F 89% 29.87 in 9.0 mi NNW 20.7 mph - 0.00 in Snow Light Snow
12:53 PM 28.0 °F 14.9 °F 25.0 °F 88% 29.86 in 10.0 mi North 19.6 mph - 0.00 in   Overcast
1:53 PM 28.0 °F 14.9 °F 25.0 °F 88% 29.87 in 10.0 mi North 19.6 mph 27.6 mph N/A   Overcast
2:53 PM 28.9 °F 16.9 °F 26.1 °F 89% 29.88 in 10.0 mi North 17.3 mph - N/A   Overcast
3:17 PM 30.2 °F 18.1 °F 26.6 °F 86% 29.83 in 10.0 mi North 18.4 mph - N/A   Overcast
3:53 PM 32.0 °F 20.1 °F 26.1 °F 79% 29.89 in 10.0 mi North 19.6 mph 26.5 mph N/A   Overcast
4:53 PM 33.1 °F 22.6 °F 26.1 °F 75% 29.90 in 10.0 mi North 16.1 mph - N/A   Overcast
5:53 PM 35.1 °F 25.9 °F 26.1 °F 70% 29.93 in 10.0 mi North 13.8 mph 21.9 mph N/A   Overcast
6:53 PM 34.0 °F 23.0 °F 25.0 °F 70% 29.97 in 10.0 mi North 18.4 mph - N/A   Mostly Cloudy
7:25 PM 33.8 °F 22.5 °F 24.8 °F 70% 29.93 in 10.0 mi NNW 19.6 mph 27.6 mph N/A   Mostly Cloudy
7:53 PM 34.0 °F 21.8 °F 26.1 °F 73% 30.00 in 10.0 mi NNW 23.0 mph 32.2 mph N/A   Overcast
8:53 PM 33.1 °F 21.2 °F 25.0 °F 72% 30.03 in 10.0 mi North 20.7 mph 29.9 mph N/A   Overcast
9:27 PM 30.2 °F 17.4 °F 23.0 °F 75% 30.00 in 10.0 mi NNW 20.7 mph - N/A   Partly Cloudy
9:53 PM 28.9 °F 14.5 °F 21.0 °F 72% 30.08 in 10.0 mi North 25.3 mph 29.9 mph N/A   Clear
10:53 PM 26.1 °F 11.6 °F 17.1 °F 69% 30.10 in 10.0 mi NNW 21.9 mph 27.6 mph N/A   Clear
11:53 PM 24.1 °F 8.3 °F 15.1 °F 69% 30.11 in 10.0 mi NNW 24.2 mph 29.9 mph N/A   Clear